DHL23 WIII-WAHH

Flight info

Callsign DHL23
Flight time N/A
Altitude 31000
Route PW W17 LILPO
Aircraft B738/M-SDE2E3FGHIRWXY/LB1

Departure

Time 2026-05-06 17:34
Airport Soekarno-Hatta International Airport (WIII)

Arrival

Time N/A
Airport Adisutjipto International Airport (WAHH)
Time Latitude Longitude Altitude Speed Heading
2026-05-06 17:18 -6.12977 106.66264 35 ft 0 kts 69°
2026-05-06 17:28 -6.12981 106.66255 37 ft 2 kts 69°
2026-05-06 17:28 -6.12985 106.66238 37 ft 2 kts 109°
2026-05-06 17:28 -6.12976 106.66226 37 ft 2 kts 158°
2026-05-06 17:28 -6.12966 106.66222 37 ft 0 kts 158°
2026-05-06 17:30 -6.12969 106.66223 37 ft 3 kts 163°
2026-05-06 17:30 -6.13007 106.66215 37 ft 8 kts 214°
2026-05-06 17:30 -6.13063 106.66198 37 ft 10 kts 161°
2026-05-06 17:31 -6.13147 106.66232 37 ft 12 kts 152°
2026-05-06 17:31 -6.13188 106.66294 37 ft 13 kts 84°
2026-05-06 17:31 -6.13145 106.66413 37 ft 23 kts 68°
2026-05-06 17:31 -6.13071 106.66595 37 ft 36 kts 68°
2026-05-06 17:32 -6.12938 106.66928 37 ft 57 kts 68°
2026-05-06 17:32 -6.12857 106.67130 36 ft 22 kts 68°
2026-05-06 17:32 -6.12793 106.67292 37 ft 25 kts 68°
2026-05-06 17:32 -6.12799 106.67373 36 ft 12 kts 137°
2026-05-06 17:33 -6.12883 106.67415 38 ft 15 kts 155°
2026-05-06 17:33 -6.12988 106.67417 39 ft 17 kts 204°
2026-05-06 17:33 -6.13082 106.67302 37 ft 32 kts 248°
2026-05-06 17:33 -6.13284 106.66792 40 ft 124 kts 248°
2026-05-06 17:34 -6.13701 106.65739 146 ft 191 kts 249°
2026-05-06 17:34 -6.14230 106.64425 936 ft 213 kts 250°
2026-05-06 17:34 -6.14822 106.62930 1414 ft 249 kts 249°
2026-05-06 17:34 -6.15512 106.61195 1753 ft 283 kts 248°
2026-05-06 17:35 -6.16247 106.59363 2731 ft 278 kts 248°
2026-05-06 17:35 -6.16953 106.57611 4039 ft 262 kts 246°
2026-05-06 17:35 -6.17725 106.56017 5198 ft 254 kts 229°
2026-05-06 17:36 -6.21054 106.54909 6255 ft 275 kts 164°
2026-05-06 17:36 -6.22797 106.55688 7042 ft 276 kts 142°
2026-05-06 17:36 -6.24144 106.57057 7854 ft 277 kts 126°
2026-05-06 17:36 -6.25232 106.58640 8656 ft 281 kts 121°
2026-05-06 17:37 -6.26365 106.60574 9594 ft 284 kts 118°
2026-05-06 17:37 -6.34441 106.74927 15103 ft 317 kts 119°
2026-05-06 17:37 -6.43952 106.91536 19268 ft 366 kts 119°
2026-05-06 17:37 -6.59354 107.18395 23909 ft 412 kts 119°
2026-05-06 17:38 -6.81380 107.57256 27667 ft 452 kts 119°
2026-05-06 17:38 -6.88292 107.69393 28793 ft 439 kts 120°
2026-05-06 17:38 -7.03088 107.94908 28798 ft 481 kts 119°
2026-05-06 17:38 -7.09437 108.06018 28734 ft 479 kts 118°
2026-05-06 17:39 -7.11009 108.08892 28777 ft 458 kts 118°
2026-05-06 17:39 -7.12513 108.11644 28796 ft 441 kts 118°
2026-05-06 17:39 -7.21867 108.28439 28474 ft 393 kts 119°
2026-05-06 17:39 -7.26398 108.36316 29024 ft 409 kts 120°
2026-05-06 17:40 -7.34872 108.51105 28992 ft 452 kts 119°
2026-05-06 17:40 -7.39577 108.59478 28839 ft 465 kts 119°
2026-05-06 17:40 -7.42646 108.64929 28747 ft 439 kts 119°
2026-05-06 17:40 -7.44154 108.67598 27988 ft 441 kts 119°
2026-05-06 17:41 -7.45654 108.70251 27761 ft 430 kts 119°
2026-05-06 17:41 -7.47139 108.72874 27079 ft 432 kts 119°
2026-05-06 17:41 -7.48608 108.75471 26750 ft 423 kts 119°
2026-05-06 17:41 -7.50071 108.78057 26231 ft 422 kts 119°
2026-05-06 17:42 -7.51515 108.80610 25728 ft 420 kts 119°
2026-05-06 17:42 -7.52922 108.83090 26064 ft 373 kts 120°
2026-05-06 17:42 -7.54150 108.85241 26274 ft 339 kts 118°
2026-05-06 17:42 -7.55405 108.87598 23856 ft 417 kts 118°
2026-05-06 17:43 -7.56804 108.90078 23712 ft 406 kts 120°
2026-05-06 17:43 -7.58209 108.92519 23459 ft 398 kts 119°
2026-05-06 17:43 -7.59589 108.94920 23028 ft 395 kts 119°
2026-05-06 17:43 -7.61730 108.98689 22338 ft 389 kts 119°
2026-05-06 17:44 -7.63064 109.01052 21905 ft 386 kts 119°
2026-05-06 17:44 -7.64191 109.03495 21456 ft 384 kts 109°
2026-05-06 17:44 -7.64894 109.06085 20893 ft 385 kts 99°
2026-05-06 17:44 -7.65227 109.08762 20445 ft 385 kts 97°
2026-05-06 17:45 -7.65548 109.11454 19982 ft 386 kts 97°
2026-05-06 17:45 -7.65870 109.14130 19629 ft 382 kts 96°
2026-05-06 17:45 -7.66190 109.16743 19181 ft 375 kts 97°
2026-05-06 17:45 -7.66510 109.19349 18700 ft 374 kts 97°
2026-05-06 17:46 -7.66829 109.21954 18242 ft 374 kts 97°
2026-05-06 17:46 -7.67145 109.24514 17766 ft 372 kts 97°
2026-05-06 17:46 -7.67465 109.27092 17333 ft 369 kts 97°
2026-05-06 17:46 -7.67785 109.29651 16898 ft 366 kts 97°
2026-05-06 17:47 -7.68103 109.32187 16485 ft 363 kts 98°
2026-05-06 17:47 -7.68416 109.34690 16066 ft 356 kts 98°
2026-05-06 17:47 -7.68723 109.37134 15673 ft 349 kts 98°
2026-05-06 17:47 -7.69027 109.39549 15285 ft 347 kts 99°
2026-05-06 17:48 -7.69330 109.41952 14884 ft 344 kts 99°
2026-05-06 17:48 -7.69630 109.44337 14512 ft 342 kts 98°
2026-05-06 17:48 -7.69924 109.46688 14109 ft 336 kts 99°
2026-05-06 17:48 -7.70216 109.49015 13736 ft 333 kts 98°
2026-05-06 17:49 -7.70506 109.51325 13299 ft 331 kts 99°
2026-05-06 17:49 -7.70790 109.53592 13212 ft 318 kts 99°
2026-05-06 17:49 -7.71094 109.55727 13187 ft 307 kts 106°
2026-05-06 17:49 -7.72063 109.57637 13225 ft 316 kts 132°
2026-05-06 17:50 -7.73665 109.59218 13226 ft 325 kts 138°
2026-05-06 17:50 -7.75338 109.60675 13190 ft 310 kts 140°
2026-05-06 17:50 -7.76964 109.62040 13070 ft 299 kts 140°
2026-05-06 17:50 -7.78489 109.63368 11337 ft 291 kts 124°
2026-05-06 17:51 -7.79236 109.65511 5488 ft 416 kts 91°
2026-05-06 17:51 -7.79153 109.68774 1550 ft 493 kts 95°
2026-05-06 17:51 -7.79704 109.71689 2968 ft 361 kts 105°
2026-05-06 17:51 -7.80208 109.73888 3714 ft 290 kts 102°
2026-05-06 17:52 -7.80506 109.75754 3540 ft 256 kts 98°
2026-05-06 17:52 -7.80702 109.77546 2724 ft 272 kts 98°
2026-05-06 17:52 -7.81033 109.79440 1792 ft 275 kts 105°
2026-05-06 17:52 -7.81458 109.81181 2051 ft 241 kts 107°
2026-05-06 17:53 -7.81904 109.82735 1866 ft 225 kts 109°
2026-05-06 17:53 -7.82409 109.84134 1810 ft 203 kts 114°
2026-05-06 17:53 -7.82914 109.85425 1574 ft 192 kts 112°
2026-05-06 17:53 -7.83390 109.86678 1328 ft 189 kts 111°
2026-05-06 17:54 -7.83837 109.87899 1203 ft 179 kts 112°
2026-05-06 17:54 -7.84290 109.89038 1186 ft 168 kts 114°
2026-05-06 17:54 -7.84722 109.90100 1090 ft 164 kts 111°
2026-05-06 17:54 -7.85115 109.91155 1064 ft 156 kts 113°
2026-05-06 17:55 -7.85530 109.92101 1094 ft 139 kts 115°
2026-05-06 17:55 -7.85888 109.92965 1063 ft 130 kts 115°
2026-05-06 17:55 -7.86180 109.93802 985 ft 127 kts 114°
2026-05-06 17:55 -7.86490 109.94689 906 ft 140 kts 114°
2026-05-06 17:56 -7.86847 109.95604 855 ft 140 kts 110°
2026-05-06 17:56 -7.87169 109.96492 804 ft 130 kts 112°
2026-05-06 17:56 -7.87451 109.97341 734 ft 124 kts 112°
2026-05-06 17:56 -7.87742 109.98129 674 ft 116 kts 114°
2026-05-06 17:57 -7.88049 109.98924 620 ft 137 kts 116°
2026-05-06 17:57 -7.88376 109.99798 592 ft 131 kts 112°
2026-05-06 17:57 -7.88678 110.00684 557 ft 135 kts 113°
2026-05-06 17:57 -7.89008 110.01574 451 ft 135 kts 114°
2026-05-06 17:58 -7.89331 110.02473 316 ft 139 kts 112°
2026-05-06 17:58 -7.89661 110.03390 211 ft 137 kts 111°
2026-05-06 17:58 -7.89987 110.04257 114 ft 127 kts 111°
2026-05-06 17:58 -7.90283 110.05041 36 ft 110 kts 111°
2026-05-06 17:59 -7.90406 110.05363 35 ft 28 kts 111°
2026-05-06 17:59 -7.90475 110.05542 40 ft 36 kts 111°
2026-05-06 17:59 -7.90685 110.06086 39 ft 129 kts 111°
2026-05-06 17:59 -7.90982 110.06872 1036 ft 73 kts 114°
2026-05-06 18:00 -7.91215 110.07375 1457 ft 112 kts 115°
2026-05-06 18:00 -7.91553 110.08422 1125 ft 196 kts 73°
2026-05-06 18:00 -7.90386 110.09417 1048 ft 246 kts 44°
2026-05-06 18:00 -7.89535 110.10189 511 ft 251 kts 47°
2026-05-06 18:01 -7.87847 110.10949 298 ft 307 kts 352°